Waarnemingen

Advertentie
Mijn weer
Leeuwarden, Nederland (6270): temperatuur & dauwpunt: 17.01.2018 04:00:00 - 23.01.2018 04:00:00 (CET)Leeuwarden, Nederland (6270): temperatuur 5cm: 17.01.2018 04:00:00 - 23.01.2018 04:00:00 (CET)Leeuwarden, Nederland (6270): windsnelheid & windstoten: 17.01.2018 04:00:00 - 23.01.2018 04:00:00 (CET)Leeuwarden, Nederland (6270): windrichting: 17.01.2018 04:00:00 - 23.01.2018 04:00:00 (CET)Leeuwarden, Nederland (6270): luchtdruk: 17.01.2018 04:00:00 - 23.01.2018 04:00:00 (CET)Leeuwarden, Nederland (6270): zicht: 17.01.2018 04:00:00 - 23.01.2018 04:00:00 (CET)Leeuwarden, Nederland (6270): neerslag: 17.01.2018 04:00:00 - 23.01.2018 04:00:00 (CET)
Datum & Tijd tt [°C] td [°C] tt 5cm [°C] ff [km/u] ff [kn] fx [km/u] fx [kn] dd ppp [hPa] vv [km] rr [mm]
23.01.2018 04:00:00 5,3 4,4 5,1 14 8 - - WZW 1017,3 12 0,0
23.01.2018 03:00:00 5,5 4,4 4,8 14 8 22 12 WZW 1016,8 11 0,0
23.01.2018 02:00:00 5,6 4,6 5,1 14 8 22 12 WZW 1016,4 10 0,0
23.01.2018 01:00:00 6,0 4,9 5,5 14 8 - - W 1016,0 10 0,0
23.01.2018 00:00:00 5,9 4,7 5,4 14 8 25 14 W 1015,5 10 0,0
22.01.2018 23:00:00 5,8 4,8 5,3 18 10 29 16 W 1014,3 10 0,0
22.01.2018 22:00:00 5,7 4,6 5,3 18 10 - - W 1013,7 10 0,0
22.01.2018 21:00:00 5,4 4,4 4,8 18 10 25 14 W 1012,5 10 0,0
22.01.2018 20:00:00 5,9 4,7 5,5 18 10 29 16 W 1011,9 11 0,0
22.01.2018 19:00:00 6,0 4,7 5,6 18 10 - - W 1011,0 10 0,0
22.01.2018 18:00:00 6,0 4,8 5,6 18 10 29 16 W 1010,3 9 0,0
22.01.2018 17:00:00 5,9 4,8 5,6 18 10 29 16 W 1009,2 10 0,0
22.01.2018 16:00:00 6,5 5,1 6,3 18 10 - - W 1008,0 11 0,0
22.01.2018 15:00:00 6,7 5,3 6,6 18 10 29 16 W 1006,8 12 0,0
22.01.2018 14:00:00 6,8 5,4 6,9 16 9 32 18 W 1006,3 10 0,0
22.01.2018 13:00:00 6,8 5,5 6,8 18 10 - - W 1005,8 12 0,0
22.01.2018 12:00:00 6,5 5,6 6,4 18 10 29 16 W 1005,4 11 0,0
22.01.2018 11:00:00 5,8 4,9 5,5 14 8 22 12 W 1004,9 12 0,0
22.01.2018 10:00:00 3,9 3,8 3,7 11 6 - - WZW 1004,2 2,2 0,0
22.01.2018 09:00:00 2,8 2,7 2,6 9 5 22 12 Z 1003,4 1,2 0,0
22.01.2018 08:00:00 2,5 2,2 2,3 11 6 22 12 Z 1003,4 2,6 0,3
22.01.2018 07:00:00 2,2 1,8 2,1 11 6 - - ZZO 1003,4 2,3 0,1
22.01.2018 06:00:00 2,1 1,6 2,0 15 8 32 18 ZZO 1003,3 3,2 0,2
22.01.2018 05:00:00 2,0 1,3 1,9 18 10 36 19 ZZO 1004,3 2,8 0,3
22.01.2018 04:00:00 1,7 0,9 1,6 22 12 - - ZZO 1004,6 5 0,2
22.01.2018 03:00:00 2,1 0,4 1,8 25 14 36 19 ZZO 1005,5 7 0,1
22.01.2018 02:00:00 2,4 0,6 2,2 26 14 40 21 ZZO 1005,9 10 0,0
22.01.2018 01:00:00 2,7 0,6 2,5 22 12 - - ZZO 1007,9 14 0,0
22.01.2018 00:00:00 2,7 0,6 2,4 22 12 36 19 ZZO 1008,7 18 0,0
21.01.2018 23:00:00 2,8 0,8 2,4 18 10 25 14 ZZO 1010,4 20 0,0
21.01.2018 22:00:00 2,6 0,9 2,2 18 10 - - ZZO 1010,9 22 0,0
21.01.2018 21:00:00 2,6 0,8 2,3 14 8 22 12 Z 1012,2 34 0,0
21.01.2018 20:00:00 2,9 0,5 2,4 14 8 22 12 ZZO 1012,8 42 0,0
21.01.2018 19:00:00 3,0 0,7 2,1 14 8 - - ZZO 1013,4 41 0,0
21.01.2018 18:00:00 2,5 0,8 1,4 11 6 14 8 ZZO 1014,1 39 0,0
21.01.2018 17:00:00 2,3 0,8 0,3 7 4 11 6 Z 1014,2 45 0,0
21.01.2018 16:00:00 3,1 1,5 1,7 5 3 - - ZZW 1014,5 10 0,0
21.01.2018 15:00:00 4,4 1,7 4,0 11 6 18 10 ZW 1014,6 49 0,0
21.01.2018 14:00:00 5,4 1,2 5,2 11 6 22 12 WZW 1014,6 50 0,0
21.01.2018 13:00:00 5,3 1,4 5,4 11 6 - - WNW 1014,4 45 0,0
21.01.2018 12:00:00 4,7 1,5 4,8 15 8 22 12 WNW 1014,3 10 0,0
21.01.2018 11:00:00 3,8 1,6 3,3 9 5 14 8 W 1014,1 10 0,0
21.01.2018 10:00:00 2,6 -0,2 0,9 11 6 - - WNW 1013,2 45 0,0
21.01.2018 09:00:00 0,7 -0,3 -1,1 7 4 14 8 WNW 1012,4 40 0,0
21.01.2018 08:00:00 1,6 0,3 0,9 11 6 25 14 NNW 1011,4 50 0,1
21.01.2018 07:00:00 2,3 0,6 1,0 14 8 - - NW 1010,1 45 0,0
21.01.2018 06:00:00 2,4 0,6 1,6 18 10 29 16 NNW 1009,1 35 0,0
21.01.2018 05:00:00 2,2 0,6 1,5 21 11 32 18 NW 1008,0 10 0,0
21.01.2018 04:00:00 2,0 0,5 1,4 25 14 - - NW 1007,1 26 0,0
21.01.2018 03:00:00 2,2 0,2 1,4 22 12 29 16 WNW 1006,3 48 0,0
21.01.2018 02:00:00 2,2 0,2 1,1 14 8 22 12 WNW 1005,1 36 0,0
21.01.2018 01:00:00 0,3 -1,0 -1,0 7 4 - - W 1004,1 44 0,0
21.01.2018 00:00:00 -0,4 -0,9 -1,1 11 6 14 8 ZW 1003,1 6 0,0
20.01.2018 23:00:00 0,7 0,4 -0,7 0 0 14 8 N 1002,8 3,7 0,1
20.01.2018 22:00:00 1,6 1,0 0,9 11 6 - - WNW 1002,2 2,1 0,2
20.01.2018 21:00:00 1,5 1,4 0,7 9 5 11 6 ZZW 1001,4 2,7 0,1
20.01.2018 20:00:00 2,2 1,5 1,6 7 4 14 8 Z 1000,7 3,8 0,0
20.01.2018 19:00:00 2,4 1,6 2,0 7 4 - - Z 1000,4 4,4 0,0
20.01.2018 18:00:00 2,6 1,9 2,5 7 4 14 8 Z 1000,1 4,4 0,0
20.01.2018 17:00:00 2,6 1,9 2,5 7 4 18 10 ZZW 1000,2 5 0,0
20.01.2018 16:00:00 2,6 1,8 2,6 11 6 - - Z 999,8 5 0,0
20.01.2018 15:00:00 3,0 2,0 3,1 11 6 22 12 Z 1000,0 8 0,0
20.01.2018 14:00:00 2,8 1,8 2,9 18 10 25 14 Z 1000,4 9 0,0
20.01.2018 13:00:00 2,5 1,7 2,4 14 8 - - Z 1001,3 7 0,0
20.01.2018 12:00:00 1,9 1,3 1,7 13 7 18 10 Z 1002,3 5 0,0
20.01.2018 11:00:00 1,6 0,8 1,6 14 8 22 12 Z 1002,7 8 0,0
20.01.2018 10:00:00 1,3 0,3 0,7 11 6 - - Z 1002,9 15 0,0
20.01.2018 09:00:00 0,6 0,0 -0,1 11 6 18 10 Z 1003,1 16 0,0
20.01.2018 08:00:00 1,2 0,3 0,6 14 8 22 12 ZZW 1003,1 17 0,0
20.01.2018 07:00:00 1,3 0,2 0,5 14 8 - - Z 1003,4 20 0,0
20.01.2018 06:00:00 1,0 0,1 0,6 15 8 25 14 ZZW 1003,5 10 0,2
20.01.2018 05:00:00 0,5 -0,2 -0,2 11 6 22 12 Z 1003,8 20 0,0
20.01.2018 04:00:00 0,8 -0,2 -0,1 11 6 - - Z 1004,5 10 0,0
20.01.2018 03:00:00 1,0 0,3 0,5 11 6 22 12 Z 1005,1 19 0,1
20.01.2018 02:00:00 0,7 0,3 0,4 7 4 18 10 Z 1005,5 36 0,0
20.01.2018 01:00:00 0,4 0,0 0,2 11 6 - - Z 1005,5 29 1,1
20.01.2018 00:00:00 1,4 0,1 1,2 26 14 40 21 W 1005,9 6 0,1
19.01.2018 23:00:00 1,5 0,0 0,4 14 8 22 12 ZW 1005,7 44 0,0
19.01.2018 22:00:00 1,1 -0,3 0,1 11 6 - - ZZW 1005,6 43 0,0
19.01.2018 21:00:00 1,5 0,5 1,0 11 6 32 18 ZW 1005,6 47 0,3
19.01.2018 20:00:00 1,1 0,3 0,1 9 5 14 8 ZZW 1005,6 10 0,0
19.01.2018 19:00:00 2,2 0,9 1,6 11 6 - - W 1005,6 9 0,4
19.01.2018 18:00:00 2,8 0,5 2,4 18 10 29 16 ZW 1005,4 10 0,0
19.01.2018 17:00:00 3,0 1,3 2,4 11 6 25 14 ZW 1005,5 23 0,0
19.01.2018 16:00:00 4,1 1,7 3,8 18 10 - - ZW 1005,6 27 0,0
19.01.2018 15:00:00 4,9 1,7 4,5 22 12 36 19 WZW 1005,3 30 0,0
19.01.2018 14:00:00 4,4 1,3 4,2 29 16 40 21 WZW 1005,3 38 0,0
19.01.2018 13:00:00 4,4 1,6 4,4 32 18 - - WZW 1005,2 30 0,0
19.01.2018 12:00:00 5,0 2,2 5,1 14 8 25 14 W 1005,4 12 0,0
19.01.2018 11:00:00 3,3 1,5 3,2 15 8 22 12 WZW 1005,2 10 0,0
19.01.2018 10:00:00 2,1 1,0 1,4 11 6 - - ZW 1004,5 10 0,0
19.01.2018 09:00:00 1,1 0,7 0,5 9 5 18 10 ZW 1004,1 10 0,3
19.01.2018 08:00:00 1,8 1,2 1,2 13 7 18 10 ZW 1003,3 10 0,0
19.01.2018 07:00:00 1,3 0,8 0,7 11 6 - - ZZW 1002,8 10 0,0
19.01.2018 06:00:00 2,0 1,3 1,5 9 5 29 16 W 1002,5 10 0,5
19.01.2018 05:00:00 1,2 0,6 0,8 11 6 14 8 ZW 1002,0 10 0,0
19.01.2018 04:00:00 1,0 0,7 0,4 11 6 - - ZZW 1001,6 10 0,3
19.01.2018 03:00:00 0,9 0,6 0,1 13 7 18 10 ZW 1001,5 10 0,0
19.01.2018 02:00:00 0,5 0,0 -0,4 8 4 14 8 ZZW 1001,0 10 0,0
19.01.2018 01:00:00 0,7 0,0 -0,2 8 4 - - Z 1000,8 10 0,0
19.01.2018 00:00:00 0,2 -0,4 -1,2 9 5 18 10 Z 1000,6 10 0,0
18.01.2018 23:00:00 0,0 -0,5 -0,9 9 5 11 6 ZW 1000,1 10 0,0
18.01.2018 22:00:00 2,4 0,8 1,3 9 5 - - WNW 1000,0 10 0,6
18.01.2018 21:00:00 2,4 0,8 1,7 18 10 36 19 W 999,8 3,5 0,1
18.01.2018 20:00:00 3,3 1,3 3,0 18 10 32 18 W 999,6 10 0,0
18.01.2018 19:00:00 3,7 1,5 3,3 16 9 - - W 999,0 10 0,0
18.01.2018 18:00:00 2,9 0,8 2,5 22 12 47 25 W 998,4 10 0,4
18.01.2018 17:00:00 4,2 1,7 3,3 22 12 36 19 W 997,5 10 0,0
18.01.2018 16:00:00 4,5 2,2 4,1 26 14 - - W 996,7 10 0,0
18.01.2018 15:00:00 5,3 2,4 4,9 26 14 43 23 WNW 995,3 10 0,0
18.01.2018 14:00:00 5,0 2,4 4,5 31 17 58 31 NW 994,2 10 0,0
18.01.2018 13:00:00 4,8 2,3 4,7 48 26 - - NW 991,6 10 0,0
18.01.2018 12:00:00 4,0 1,9 3,7 65 35 90 49 NNW 986,7 10 0,2
18.01.2018 11:00:00 5,1 3,7 4,9 35 19 65 35 W 977,6 2,8 0,1
18.01.2018 10:00:00 6,1 3,2 5,7 48 26 - - WZW 977,3 5 0,0
18.01.2018 09:00:00 7,6 4,2 6,9 39 21 58 31 WZW 978,0 10 0,0
18.01.2018 08:00:00 6,4 5,1 4,8 31 17 47 25 ZW 979,1 10 1,7
18.01.2018 07:00:00 2,4 1,7 1,5 28 15 - - ZZO 981,9 3,2 3,0
18.01.2018 06:00:00 1,5 0,7 1,3 26 14 47 25 ZO 986,4 4,6 2,8
18.01.2018 05:00:00 2,5 1,4 2,3 28 15 47 25 Z 990,7 3,7 1,2
18.01.2018 04:00:00 3,6 1,9 3,4 26 14 - - ZZW 994,6 10 0,2
18.01.2018 03:00:00 3,9 1,6 3,5 18 10 29 16 ZZW 996,9 10 0,0
18.01.2018 02:00:00 4,1 1,5 3,5 21 11 29 16 ZW 998,7 10 0,0
18.01.2018 01:00:00 4,2 1,4 3,9 22 12 - - ZW 1000,3 10 0,0
18.01.2018 00:00:00 4,6 1,4 4,2 22 12 43 23 WZW 1001,1 10 0,0
17.01.2018 23:00:00 4,6 1,2 3,8 28 15 36 19 WZW 1001,5 10 0,0
17.01.2018 22:00:00 4,9 0,9 3,9 28 15 - - W 1001,3 10 0,0
17.01.2018 21:00:00 5,0 1,2 4,3 29 16 43 23 W 1001,2 10 0,0
17.01.2018 20:00:00 4,9 1,3 4,2 28 15 43 23 W 1000,9 10 0,0
17.01.2018 19:00:00 4,5 0,9 3,6 35 19 - - W 1000,8 10 0,3
17.01.2018 18:00:00 4,2 0,8 3,5 28 15 58 31 W 1000,6 10 0,0
17.01.2018 17:00:00 2,9 0,6 2,4 39 21 61 33 WNW 1000,5 7 0,3
17.01.2018 16:00:00 3,8 0,8 2,8 21 11 - - WNW 999,0 10 0,1
17.01.2018 15:00:00 2,5 0,9 2,3 41 22 58 31 NW 998,3 10 0,7
17.01.2018 14:00:00 3,6 1,4 3,2 39 21 47 25 W 996,5 10 0,2
17.01.2018 13:00:00 3,3 0,2 2,9 29 16 - - W 995,5 10 0,0
17.01.2018 12:00:00 3,1 0,4 2,8 26 14 50 27 W 995,1 10 0,1
17.01.2018 11:00:00 3,3 0,5 2,9 28 15 47 25 W 994,1 10 0,0
17.01.2018 10:00:00 2,9 -1,1 2,2 37 20 - - W 993,5 10 0,1
17.01.2018 09:00:00 2,6 -1,5 1,8 24 13 40 21 W 993,0 10 0,0
17.01.2018 08:00:00 2,7 -0,5 1,8 28 15 58 31 W 992,0 10 0,0
17.01.2018 07:00:00 2,5 -0,9 1,9 28 15 - - WNW 990,8 10 0,0
17.01.2018 06:00:00 2,4 -0,3 1,9 28 15 50 27 WNW 990,0 10 0,0
17.01.2018 05:00:00 2,8 -0,5 1,8 18 10 32 18 W 989,1 10 0,1
17.01.2018 04:00:00 1,7 0,3 1,2 13 7 - - W 989,0 10 0,6

tt = temperatuur
td = dauwpunt
tt 5cm = temperatuur 5cm
ff = windsnelheid
fx = windstoten
dd = windrichting
ppp = luchtdruk
vv = zicht
rr = neerslag

Weerstations in de omgeving